Weather History for Cancun, Mexico

Change the Weather History Date:

Friday, February 21, 2014

  Actual Average Record
Temperature  
Mean Temperature 80 °F -  
Max Temperature 84 °F 83 °F 91 °F (1999)
Min Temperature 77 °F 66 °F 60 °F (2000)
Cooling Degree Days 16    
Growing Degree Days 30 (Base 50)    
Moisture  
Dew Point 73 °F    
Average Humidity 80    
Maximum Humidity 89    
Minimum Humidity 70    
Precipitation  
Precipitation 0.00 in - - ()
Sea Level Pressure  
Sea Level Pressure 29.98 in    
Wind  
Wind Speed 10 mph ()    
Max Wind Speed 15 mph    
Max Gust Speed -    
Visibility 7.0 miles    
Events      
Averages and records for this station are not official NWS values.
T = Trace of Precipitation, MM = Missing Value Source: Averaged Metar Reports

Daily Weather History Graph

Daily Weather History Graph

Search for Another Location

Airport:

Trip Planner

Search our weather history database for the weather conditions in past years. The results will help you decide how hot, cold, wet, or windy it might be!

Date:

Astronomy

Feb. 21, 2014 Rise Set
Actual Time 6:13 AM CST 5:48 PM CST
Civil Twilight 5:51 AM CST 6:11 PM CST
Nautical Twilight 5:25 AM CST 6:37 PM CST
Astronomical Twilight 4:59 AM CST 7:02 PM CST
Moon 11:50 PM CST (2/21) 10:27 AM CST (2/21)
Length of Visible Light 12h 19m
Length of Day
11h 34m
Waning Gibbous, 60% of the Moon is Illuminated
Feb 21
Waning Gibbous
Feb 22
Last Quarter
Mar 1
New
Mar 8
First Quarter
Mar 16
Full

Hourly Weather History & Observations

Time (CST) Temp. Heat Index Dew Point Humidity Pressure Visibility Wind Dir Wind Speed Gust Speed Precip Events Conditions
12:44 AM 78.8 °F - 73.4 °F 83% 29.96 in 7.0 mi SE 13.8 mph - N/A   Partly Cloudy
1:40 AM 78.8 °F - 71.6 °F 78% 29.96 in 7.0 mi SE 13.8 mph - N/A   Partly Cloudy
2:47 AM 78.8 °F - 71.6 °F 78% 29.92 in 7.0 mi SSE 13.8 mph - N/A   Partly Cloudy
3:46 AM 78.8 °F - 73.4 °F 83% 29.94 in 7.0 mi SSE 12.7 mph - N/A   Partly Cloudy
4:42 AM 78.8 °F - 71.6 °F 78% 29.95 in 7.0 mi SSE 12.7 mph - N/A   Partly Cloudy
5:40 AM 77.0 °F - 71.6 °F 83% 29.94 in 7.0 mi SE 10.4 mph - N/A   Partly Cloudy
6:43 AM 77.0 °F - 71.6 °F 83% 29.99 in 7.0 mi SE 9.2 mph - N/A   Scattered Clouds
7:44 AM 80.6 °F 85.4 °F 73.4 °F 79% 30.01 in 7.0 mi SE 10.4 mph - N/A   Scattered Clouds
8:43 AM 82.4 °F 88.2 °F 73.4 °F 74% 30.00 in 7.0 mi SE 12.7 mph - N/A   Scattered Clouds
9:41 AM 82.4 °F 88.2 °F 73.4 °F 74% 30.02 in 7.0 mi SE 15.0 mph - N/A   Scattered Clouds
10:41 AM 84.2 °F 90.9 °F 73.4 °F 70% 30.02 in 7.0 mi SE 13.8 mph - N/A   Mostly Cloudy
11:44 AM 84.2 °F 90.9 °F 73.4 °F 70% 29.98 in 7.0 mi SE 12.7 mph - N/A   Mostly Cloudy
12:40 PM 84.2 °F 90.9 °F 73.4 °F 70% 29.98 in 7.0 mi ESE 13.8 mph - N/A   Mostly Cloudy
1:40 PM 82.4 °F 88.2 °F 73.4 °F 74% 29.96 in 7.0 mi SE 12.7 mph - N/A   Mostly Cloudy
2:43 PM 82.4 °F 88.2 °F 73.4 °F 74% 29.94 in 7.0 mi ESE 11.5 mph - N/A   Mostly Cloudy
3:41 PM 82.4 °F 88.2 °F 73.4 °F 74% 29.97 in 7.0 mi SE 12.7 mph - N/A   Scattered Clouds
4:42 PM 80.6 °F 85.4 °F 73.4 °F 79% 29.98 in 7.0 mi ESE 8.1 mph - N/A   Scattered Clouds
5:40 PM 78.8 °F - 73.4 °F 83% 29.96 in 7.0 mi ESE 6.9 mph - N/A   Partly Cloudy
6:43 PM 77.0 °F - 73.4 °F 89% 29.99 in 7.0 mi ESE 5.8 mph - N/A   Clear
7:44 PM 77.0 °F - 73.4 °F 89% 30.01 in 7.0 mi ESE 5.8 mph - N/A   Scattered Clouds
8:44 PM 77.0 °F - 73.4 °F 89% 29.99 in 7.0 mi ESE 5.8 mph - N/A   Partly Cloudy
9:48 PM 77.0 °F - 73.4 °F 89% 30.02 in 7.0 mi ESE 9.2 mph - N/A   Partly Cloudy
10:47 PM 77.0 °F - 73.4 °F 89% 30.03 in 7.0 mi ESE 5.8 mph - N/A   Clear
11:46 PM 77.0 °F - 73.4 °F 89% 29.99 in 7.0 mi ESE 5.8 mph - N/A   Clear